Location: Monteux
(44.0348°N, 4.9972°E)
Time: 18:12:20
(UTC+00:00)

Cosmos 1680 Rocket - Pass Details

Date: 30 November 2020
Orbit: 760 x 781 km, 74.1° (Epoch: 17 January)

Event Time Altitude Azimuth Distance (km) Brightness Sun altitude
Rises 18:17:45 0° 191° (S) 3,227 7.0 -23.5°
Reaches altitude 10° 18:20:07 10° 189° (S) 2,308 6.2 -23.9°
Enters shadow 18:25:07 67° 122° (ESE) 840 3.4 -24.8°
